Overview Statistics Trail Chart Weather Telemetry Raw packets
 

This is the latest recevied weather packets stored in our database for station/object JH7MHZ-13. If no packets are shown the sender has not sent any weather packets the latest 10 day(s).

<< 5 6 7 8 9 10 >>
Time Temp. Humidity Pressure Rain* Wind** Luminosity Snow
1788069531 21.11° C 86% 993.6 hPa 0 mm - - -
1788065930 22.22° C 81% 993.9 hPa 0 mm - - -
1788062330 21.67° C 85% 993.7 hPa 0 mm - - -
1788058729 21.11° C 85% 993.9 hPa 0 mm - - -
1788055129 21.67° C 83% 994.1 hPa 0 mm - - -
1788051794 20.56° C 83% 994.1 hPa 0 mm - - -
1788051528 20.56° C 83% 994.1 hPa 0 mm - - -
1788047927 20° C 88% 994 hPa 0 mm - - -
1788045588 18.33° C 96% 994.3 hPa 1.02 mm - - -
1788044327 18.33° C 96% 994.3 hPa 1.02 mm - - -
1788040726 18.33° C 94% 995 hPa 0 mm - - -
1788037126 18.89° C 89% 994.7 hPa 0 mm - - -
1788034632 19.44° C 83% 994 hPa 0 mm - - -
1788033525 19.44° C 83% 994 hPa 0 mm - - -
1788030094 19.44° C 84% 993.8 hPa 0 mm - - -
1788029925 19.44° C 84% 993.8 hPa 0 mm - - -
1788026457 19.44° C 85% 993.7 hPa 0 mm - - -
1788026324 19.44° C 85% 993.7 hPa 0 mm - - -
1788022724 19.44° C 86% 993.7 hPa 0 mm - - -
1788019413 19.44° C 86% 994.3 hPa 0 mm - - -
1788019123 19.44° C 86% 994.3 hPa 0 mm - - -
1788015522 19.44° C 87% 994.8 hPa 0 mm - - -
1788011922 20° C 85% 994.7 hPa 0 mm - - -
1788008321 20° C 84% 994.8 hPa 0 mm - - -
1788004721 20° C 83% 995 hPa 0 mm - - -

* Rain latest hour (hover to see other rain measurements)
** Current wind speed in m/s (hover to see current wind gust speed)